Kenosha, WI

3:07 PM CDT on April 25, 2017 (GMT -0500)
Kenosha Regional

Weather History for KENW - March, 2013

Change the Weather History Date:

Thursday, March 14, 2013

  Actual Average Record
Temperature  
Mean Temperature 26 °F -  
Max Temperature 36 °F 41 °F 79 °F (2012)
Min Temperature 17 °F 25 °F 1 °F (1993)
Degree Days  
Heating Degree Days 39    
Moisture  
Dew Point 18 °F    
Average Humidity 67    
Maximum Humidity 85    
Minimum Humidity 48    
Precipitation  
Precipitation 0.00 in - - ()
Sea Level Pressure  
Sea Level Pressure 30.24 in    
Wind  
Wind Speed 5 mph (WSW)    
Max Wind Speed 9 mph    
Max Gust Speed -    
Visibility 9 miles    
Events      
Averages and records for this station are not official NWS values.
T = Trace of Precipitation, MM = Missing Value Source: NWS Daily Summary

Daily Weather History Graph

Daily Weather History Graph

Search for Another Location

Airport or City:

Trip Planner

Search our weather history database for the weather conditions in past years. The results will help you decide how hot, cold, wet, or windy it might be!

Date:

Astronomy

Mar. 14, 2013 Rise Set
Actual Time 7:04 AM CDT 6:57 PM CDT
Civil Twilight 6:36 AM CDT 7:25 PM CDT
Nautical Twilight 6:04 AM CDT 7:58 PM CDT
Astronomical Twilight 5:31 AM CDT 8:31 PM CDT
Moon 8:14 AM CDT (3/14) 10:18 PM CDT (3/14)
Length of Visible Light 12h 48m
Length of Day
11h 52m
Waxing Crescent, 9% of the Moon is Illuminated
Mar 14
Waxing Crescent
Mar 19
First Quarter
Mar 27
Full
Apr 2
Last Quarter
Apr 10
New

Hourly Weather History & Observations

Time (CDT) Temp. Windchill Dew Point Humidity Pressure Visibility Wind Dir Wind Speed Gust Speed Precip Events Conditions
12:53 AM 21.0 °F 14.6 °F 10.9 °F 65% 30.32 in 10.0 mi West 4.6 mph - N/A   Clear
1:53 AM 19.9 °F 11.1 °F 10.9 °F 68% 30.33 in 10.0 mi WSW 6.9 mph - N/A   Clear
2:53 AM 17.1 °F 10.0 °F 10.0 °F 74% 30.32 in 10.0 mi WSW 4.6 mph - N/A   Clear
3:53 AM 19.0 °F 10.0 °F 10.9 °F 71% 30.31 in 10.0 mi West 6.9 mph - N/A   Clear
4:53 AM 21.0 °F 16.2 °F 10.9 °F 65% 30.29 in 10.0 mi West 3.5 mph - N/A   Clear
5:53 AM 19.9 °F 14.9 °F 10.0 °F 65% 30.29 in 10.0 mi West 3.5 mph - N/A   Clear
6:53 AM 18.0 °F 11.1 °F 10.0 °F 71% 30.31 in 10.0 mi WSW 4.6 mph - N/A   Clear
7:53 AM 19.0 °F 12.3 °F 12.0 °F 74% 30.32 in 10.0 mi West 4.6 mph - N/A   Clear
8:53 AM 21.9 °F 15.7 °F 14.0 °F 72% 30.32 in 10.0 mi WSW 4.6 mph - N/A   Clear
9:53 AM 26.1 °F - 15.1 °F 63% 30.30 in 10.0 mi Calm Calm - N/A   Clear
10:53 AM 30.0 °F - 14.0 °F 51% 30.29 in 10.0 mi Calm Calm - N/A   Clear
11:53 AM 32.0 °F 26.4 °F 16.0 °F 52% 30.28 in 10.0 mi South 5.8 mph - N/A   Overcast
12:53 PM 34.0 °F 27.2 °F 16.0 °F 48% 30.27 in 10.0 mi WSW 8.1 mph - N/A   Overcast
1:53 PM 33.1 °F 25.5 °F 19.9 °F 59% 30.25 in 10.0 mi WSW 9.2 mph - N/A   Overcast
2:53 PM 32.0 °F 24.8 °F 21.9 °F 66% 30.21 in 10.0 mi SW 8.1 mph - N/A   Overcast
3:53 PM 34.0 °F 26.6 °F 19.9 °F 56% 30.19 in 10.0 mi SSW 9.2 mph - N/A   Overcast
4:53 PM 35.1 °F 28.6 °F 23.0 °F 61% 30.19 in 10.0 mi SSW 8.1 mph - N/A   Overcast
5:53 PM 35.1 °F - 23.0 °F 61% 30.20 in 10.0 mi Calm Calm - N/A   Overcast
6:53 PM 34.0 °F 29.8 °F 24.1 °F 67% 30.16 in 10.0 mi SSW 4.6 mph - N/A   Clear
7:53 PM 33.1 °F 26.1 °F 26.1 °F 75% 30.16 in 10.0 mi WSW 8.1 mph - N/A   Clear
8:53 PM 32.0 °F 25.6 °F 26.1 °F 79% 30.14 in 9.0 mi WSW 6.9 mph - N/A   Clear
9:53 PM 30.9 °F 25.2 °F 25.0 °F 79% 30.11 in 6.0 mi SW 5.8 mph - N/A   Haze
10:53 PM 30.0 °F 25.2 °F 26.1 °F 85% 30.10 in 4.0 mi SW 4.6 mph - N/A   Clear
11:53 PM 30.0 °F 24.1 °F 26.1 °F 85% 30.09 in 5.0 mi SW 5.8 mph - N/A   Clear